Home   Weather   Kolding   Past weeks
Flag for Denmark

Past Weather in Kolding, Denmark — Yesterday and Last 2 Weeks

Now
50 °F

Rain showers. Partly sunny.


Feels Like: 43 °F
Forecast: 54 / 46 °F
Wind: 25 mph from Northwest

Location: Vamdrup

Current Time: Sep 17, 2019 at 10:39:15 am

Latest Report: Sep 17, 2019 at 10:02 am


Visibility: N/A

Pressure: 29.86 "Hg

Humidity: 76%

Dew Point: 43 °F

Location of KoldingLocation

Past Weather in Kolding — Graph

°F

Kolding Temperature Yesterday

Maximum temperature yesterday: 59 °F (at 2:50 pm)
Minimum temperature yesterday: 50 °F (at 9:50 pm)
Average temperature yesterday: 54 °F

High & Low Weather Summary for the Past Weeks

 TemperatureHumidityPressure
High66 °F (Sep 3, 1:50 pm)100% (Sep 3, 5:50 am)30.51 "Hg (Sep 3, 5:50 am)
Low43 °F (Sep 8, 5:50 am)52% (Sep 2, 5:20 pm)29.71 "Hg (Sep 4, 6:20 pm)
Average56 °F86%30.03 "Hg
* Reported Sep 2 8:50 am — Sep 17 8:50 am, Kolding. Weather by CustomWeather, © 2019

Note: Actual official high and low records may vary slightly from our data, if they occured in-between our weather recording intervals... More about our weather records

Advertising

Kolding Weather History for the Previous 24 Hours

Scroll right to see more
 ConditionsComfort  
Time TempWeatherWind HumidityBarometerVisibility
8:50 am
Tue, Sep 17
50 °FPassing clouds.12 mph76%29.83 "HgN/A
7:50 am48 °FCool.10 mph82%29.86 "HgN/A
7:20 am48 °FCool.13 mph76%29.86 "HgN/A
6:50 am50 °FCool.15 mph82%29.86 "HgN/A
6:20 am48 °FCool.9 mph87%29.86 "HgN/A
5:50 am48 °FCool.10 mph94%29.86 "HgN/A
5:20 am50 °FCool.15 mph88%29.89 "HgN/A
4:50 am50 °FCool.10 mph88%29.89 "HgN/A
4:20 am50 °FCool.10 mph88%29.89 "HgN/A
3:50 am50 °FCool.9 mph94%29.89 "HgN/A
3:20 am50 °FCool.13 mph94%29.92 "HgN/A
2:50 am50 °FCool.9 mph88%29.92 "HgN/A
2:20 am50 °FCool.10 mph88%29.92 "HgN/A
1:50 am50 °FCool.9 mph94%29.92 "HgN/A
1:20 am52 °FCool.9 mph82%29.95 "HgN/A
12:50 am52 °FCool.12 mph88%29.95 "HgN/A
12:20 am50 °FCool.9 mph88%29.95 "HgN/A
11:50 pm
Mon, Sep 16
50 °FCool.9 mph94%29.95 "HgN/A
11:20 pm52 °FCool.7 mph82%29.98 "HgN/A
10:50 pm52 °FCool.10 mph82%29.98 "HgN/A
10:20 pm50 °FCool.7 mph82%29.98 "HgN/A
9:50 pm50 °FCool.8 mph82%29.98 "HgN/A
9:20 pm52 °FCool.6 mph77%29.98 "HgN/A
8:50 pm52 °FCool.8 mph82%29.98 "HgN/A
8:20 pm52 °FCool.8 mph82%29.98 "HgN/A
7:50 pm54 °FCool.7 mph77%29.98 "HgN/A
7:20 pm54 °FCool.9 mph82%29.98 "HgN/A
6:50 pm55 °FCool.12 mph77%30.01 "HgN/A
6:20 pm55 °FCool.14 mph72%30.01 "HgN/A
5:50 pm57 °FCool.15 mph72%29.98 "HgN/A
5:20 pm55 °FCool.15 mph72%30.01 "HgN/A
4:50 pm57 °FScattered clouds.15 mph67%30.01 "HgN/A
3:50 pm57 °FScattered clouds.16 mph72%30.01 "HgN/A
2:50 pm59 °FPassing clouds.13 mph68%30.01 "HgN/A
2:20 pm55 °FScattered showers. Scattered clouds.16 mph82%30.01 "HgN/A
1:50 pm57 °FScattered clouds.20 mph67%30.01 "HgN/A
12:50 pm57 °FScattered clouds.17 mph67%30.04 "HgN/A
11:50 am57 °FPartly sunny.17 mph59%30.01 "HgN/A
10:50 am57 °FPassing clouds.17 mph55%30.01 "HgN/A
10:20 am57 °FPassing clouds.14 mph63%30.01 "HgN/A
Weather by CustomWeather, © 2019

See weather overview